Location: Sibbertoft
(52.4361°N, 1.0300°W)
Time: 10:33:47
(UTC+00:00)

Envisat - Visible Passes

Search period start: 25 March 2019 00:00
Search period end: 04 April 2019 01:00
Orbit: 764 x 766 km, 98.2° (Epoch: 24 March)

Date Brightness Start Highest point End Pass type
(mag) Time Alt. Az. Time Alt. Az. Time Alt. Az.
25 Mar 6.0 20:12:34 10° WSW 20:15:14 14° W 20:17:55 10° NW visible
26 Mar 5.3 19:33:43 10° SSW 19:38:01 27° W 19:42:20 10° NW visible
27 Mar 4.0 18:56:03 10° S 19:01:00 52° W 19:05:59 10° NNW visible
28 Mar 5.8 20:00:32 10° SW 20:03:51 17° W 20:07:12 10° NW visible
29 Mar 4.9 19:22:08 10° SSW 19:26:42 33° W 19:31:17 10° NNW visible
30 Mar 6.3 20:28:53 10° W 20:29:49 10° W 20:30:44 10° WNW visible
31 Mar 5.7 20:48:41 10° SW 20:52:29 21° W 20:56:19 10° NW visible
01 Apr 4.6 20:10:38 10° SSW 20:15:23 40° W 20:20:11 10° NNW visible
02 Apr 6.0 21:16:04 10° WSW 21:18:24 13° W 21:20:45 10° WNW visible
03 Apr 5.4 20:36:59 10° SSW 20:41:09 25° W 20:45:21 10° NW visible
